Home   Weather   Jaipur   Past weeks

Flag for India Past Weather in Jaipur, Rajasthan, India — Yesterday and Last 2 Weeks

Now
86 °F

Haze.


Feels Like: 91 °F
Forecast: 75 / 96 °F
Wind: No wind

Location: Jaipur / Sanganer

Current Time: Sep 26, 2016 at 9:15:15 PM

Latest Report: Sep 26, 2016 at 8:00 PM


Visibility: 3 mi

Pressure: 29.77 "Hg

Humidity: 59%

Dew Point: 70 °F

Location of JaipurLocation

Past Weather in Jaipur — Graph

°F

Jaipur Temperature Yesterday

Maximum temperature yesterday: 93 °F (at 4:00 PM)
Minimum temperature yesterday: 75 °F (at 3:00 AM)
Average temperature yesterday: 84 °F

High & Low Weather Summary for the Past Weeks

 TemperatureHumidityPressure
High100 °F (Sep 21, 3:30 PM)94% (Sep 24, 1:30 AM)29.86 "Hg (Sep 24, 1:30 AM)
Low72 °F (Sep 24, 1:00 AM)27% (Sep 17, 4:30 PM)29.56 "Hg (Sep 22, 9:00 AM)
Average87 °F56%29.75 "Hg
* Reported Sep 11 6:30 PM — Sep 26 7:00 PM, Jaipur, Weather by CustomWeather, © 2016

Note: Actual official high and low records may vary slightly from our data, if they occured in-between our weather recording intervals... More about our weather records

Advertising

Jaipur Weather History for the Previous 24 Hours

Scroll right to see more
 ConditionsComfort  
Time TempWeatherWind HumidityBarometerVisibility
7:00 PM
Mon, Sep 26
86 °FHaze.No wind59%29.74 "Hg3 mi
6:30 PM90 °FHaze.3 mph49%29.74 "Hg3 mi
6:00 PM91 °FHaze.5 mph44%29.74 "Hg3 mi
5:30 PM93 °FPassing clouds.3 mph41%29.71 "Hg4 mi
5:00 PM93 °FPassing clouds.5 mph44%29.71 "Hg4 mi
4:30 PM93 °FPassing clouds.1 mph41%29.74 "Hg4 mi
4:00 PM93 °FScattered clouds.2 mph44%29.74 "Hg4 mi
3:00 PM93 °FScattered clouds.3 mph44%29.74 "Hg4 mi
2:00 PM95 °FScattered clouds.No wind41%29.77 "Hg4 mi
1:30 PM93 °FScattered clouds.5 mph44%29.77 "Hg4 mi
1:00 PM93 °FScattered clouds.3 mph44%29.80 "Hg4 mi
12:30 PM93 °FScattered clouds.6 mph44%29.80 "Hg4 mi
10:30 AM91 °FClear.3 mph52%29.83 "Hg4 mi
10:00 AM90 °FClear.3 mph55%29.83 "Hg4 mi
9:30 AM88 °FClear.6 mph59%29.83 "Hg4 mi
9:00 AM84 °FClear.6 mph70%29.83 "Hg4 mi
8:30 AM82 °FClear.5 mph74%29.83 "Hg4 mi
8:00 AM81 °FHaze.5 mph74%29.83 "Hg3 mi
7:30 AM79 °FHaze.5 mph79%29.80 "Hg3 mi
7:00 AM77 °FHaze.No wind83%29.80 "Hg3 mi
6:00 AM77 °FHaze.No wind83%29.77 "Hg3 mi
5:30 AM77 °FHaze.No wind83%29.77 "Hg3 mi
5:00 AM77 °FPassing clouds.No wind83%29.74 "Hg3 mi
2:30 AM79 °FPassing clouds.No wind79%29.74 "Hg3 mi
1:00 AM81 °FPassing clouds.No wind74%29.74 "Hg3 mi
12:00 AM81 °FPassing clouds.No wind74%29.77 "Hg3 mi
11:30 PM
Sun, Sep 25
81 °FPassing clouds.No wind74%29.77 "Hg3 mi
11:00 PM82 °FPassing clouds.3 mph70%29.77 "Hg3 mi
10:30 PM82 °FPassing clouds.3 mph70%29.77 "Hg3 mi
10:00 PM82 °FPassing clouds.1 mph70%29.74 "Hg3 mi
9:30 PM84 °FPassing clouds.3 mph66%29.74 "Hg3 mi
9:00 PM82 °FPassing clouds.5 mph70%29.74 "Hg3 mi
Weather by CustomWeather, © 2016

See weather overviewHow to use our weather pages